Location: Brad
(46.1333°N, 22.7833°E)
Time: 11:37:29
(UTC+00:00)

NOAA 6 - Pass Details

Date: 03 February 2023
Orbit: 771 x 786 km, 98.7° (Epoch: 20 March)

Event Time Altitude Azimuth Distance (km) Brightness Sun altitude
Rises 16:05:08 0° 159° (SSE) 3,248 7.2 -5.5°
Reaches altitude 10° 16:07:26 10° 158° (SSE) 2,327 6.5 -5.9°
Maximum altitude 16:12:34 76° 73° (ENE) 810 4.0 -6.7°
Drops below altitude 10° 16:17:45 10° 349° (NNW) 2,353 6.5 -7.6°
Sets 16:20:05 0° 348° (NNW) 3,288 7.2 -8.0°
